[[{"header":{"parameterUnit":"m.s-1","parameterCategory":1,"la1":30.2991,"la2":30.254,"lo1":-89.0895,"lo2":-89.0444,"dy":0.0017,"dx":0.0017,"nx":28,"ny":28,"refTime":"2024-03-17T09:00:00:Z","depth":0,"parameterNumber":2,"parameterNumberName":"U-component_of_WINDS"},"data":[0,0,0,0,0,0,0,0,0,0,0,0,0,0,0,0,0,0,0,0,0,0,0,0,0,0,0,0,0,0,0,0,0,0,0,0,0,0,0,0,0,0,0,0,0,0,0,0,0,0,0,0,0,0,0,0,0,0,-0.3703,-0.3702,0,-0.3663,-0.3663,-0.3662,-0.3597,-0.3596,-0.3595,-0.3594,-0.3556,-0.3556,-0.3556,0,0,0,0,0,0,0,0,0,0,0,0,0,-0.3727,-0.3727,-0.3703,-0.3702,-0.3702,-0.3663,-0.3663,-0.3662,-0.3597,-0.3596,-0.3595,-0.3593,-0.3556,-0.3556,-0.3556,0,0,0,0,0,0,0,0,0,0,0,0,0,-0.3705,-0.3727,-0.3703,-0.3665,-0.3661,-0.3663,-0.3663,-0.3662,-0.3598,-0.3596,-0.3594,-0.3592,-0.3556,-0.3556,-0.3556,-0.3593,0,0,-0.3557,-0.3557,0,0,0,0,0,0,0,0,-0.3706,-0.3704,-0.3671,-0.3668,-0.3663,-0.3633,-0.3657,-0.3639,-0.3598,-0.3622,-0.3594,-0.3592,-0.3583,-0.3581,-0.3578,-0.3591,-0.359,-0.3557,-0.3557,-0.3557,-0.3557,0,0,0,0,0,0,0,-0.3708,-0.3705,-0.3687,-0.3671,-0.3666,-0.3651,-0.3646,-0.3653,-0.3613,-0.362,-0.3615,-0.3611,-0.3581,-0.3578,-0.3576,-0.3589,-0.3557,-0.3557,-0.3557,-0.3557,-0.3633,-0.3635,0,0,0,0,0,0,-0.3714,-0.3707,-0.3688,-0.3686,-0.3681,-0.3652,-0.3646,-0.3645,-0.3613,-0.3606,-0.3612,-0.3608,-0.3578,-0.3576,-0.3575,-0.3617,-0.3557,-0.3557,-0.3557,-0.3631,-0.3633,-0.3635,0,0,0,0,0,0,-0.3715,-0.3713,-0.369,-0.3695,-0.3691,-0.3654,-0.3652,-0.3645,-0.3642,-0.3607,-0.36,-0.3616,-0.3577,-0.3574,-0.3589,-0.3615,-0.3557,-0.3557,-0.3629,-0.3632,-0.3634,-0.3702,0,0,0,0,0,0,-0.3716,-0.3714,-0.3727,-0.3696,-0.3691,-0.3704,-0.3654,-0.3645,-0.3642,-0.3635,-0.3609,-0.3603,-0.3575,-0.3589,-0.3589,-0.3614,-0.3557,-0.3626,-0.363,-0.3634,-0.3697,-0.3707,-0.3715,0,0,0,0,0,-0.3717,-0.3747,-0.3728,-0.3726,-0.3706,-0.3706,-0.3703,-0.367,-0.3644,-0.3657,-0.3636,-0.3604,-0.3612,-0.3591,-0.3591,-0.3616,-0.3625,-0.3629,-0.3633,-0.3693,-0.3705,-0.3715,0,0,0,0,0,0,-0.3783,-0.3743,-0.372,-0.3741,-0.3728,-0.3695,-0.3711,-0.3683,-0.3676,-0.3671,-0.363,-0.3625,-0.3646,-0.3632,-0.361,-0.3651,-0.3613,-0.3618,-0.3659,-0.367,-0.3679,-0.3682,-0.3557,0,0,0,0,0,-0.38,-0.3802,-0.3767,-0.3789,-0.3783,-0.3749,-0.3747,-0.3722,-0.3707,-0.3701,-0.368,-0.3667,-0.3667,-0.3667,-0.3665,-0.3695,-0.3689,-0.3712,-0.3721,-0.3728,-0.3733,-0.3749,-0.376,-0.365,-0.365,-0.365,0,0,-0.3835,-0.3813,-0.3817,-0.3802,-0.3788,-0.3793,-0.3744,-0.375,-0.3754,-0.3702,-0.3715,-0.3699,-0.3682,-0.3705,-0.3714,-0.3695,-0.3762,-0.3734,-0.374,-0.374,-0.3755,-0.3765,-0.3775,-0.3653,-0.3652,-0.3652,0,0,-0.3902,-0.3885,-0.3902,-0.389,-0.3869,-0.3846,-0.385,-0.3822,-0.381,-0.3822,-0.3783,-0.3787,-0.3787,-0.3777,-0.3772,-0.3836,-0.3807,-0.3836,-0.3883,-0.3899,-0.3908,-0.3916,-0.394,-0.3949,-0.3841,-0.3841,-0.3841,0,-0.3949,-0.3953,-0.3915,-0.3924,-0.3919,-0.3872,-0.389,-0.388,-0.3861,-0.3859,-0.3837,-0.3836,-0.3821,-0.3842,-0.3858,-0.3855,-0.386,-0.3839,-0.391,-0.3917,-0.3923,-0.3946,-0.3955,-0.3845,-0.3844,-0.3844,-0.3843,0,-0.4012,-0.4016,-0.4032,-0.4014,-0.4011,-0.4025,-0.3991,-0.3992,-0.3968,-0.3948,-0.3962,-0.3942,-0.3935,-0.3938,-0.3914,-0.3956,-0.3945,-0.3917,-0.3878,-0.3938,-0.3959,-0.3968,-0.385,-0.3849,-0.3848,-0.3847,0,0,-0.412,-0.4081,-0.4088,-0.4079,-0.4054,-0.4057,-0.4069,-0.4062,-0.4065,-0.4054,-0.4064,-0.4065,-0.404,-0.4034,-0.4009,-0.4023,-0.4078,-0.3993,-0.3993,-0.4011,-0.4124,-0.4147,-0.4157,-0.4058,-0.4059,-0.4061,-0.4126,0,-0.4182,-0.42,-0.4167,-0.4194,-0.4198,-0.4153,-0.4164,-0.415,-0.4132,-0.4133,-0.4113,-0.4115,-0.408,-0.4077,-0.4089,-0.4068,-0.41,-0.4063,-0.4069,-0.407,-0.4076,-0.4168,-0.4191,-0.4254,-0.4134,-0.4135,-0.4136,0,-0.4258,-0.425,-0.4277,-0.4251,-0.4251,-0.4262,-0.4253,-0.4255,-0.4239,-0.4225,-0.4219,-0.4189,-0.4201,-0.4163,-0.418,-0.4156,-0.4156,-0.4147,-0.4149,-0.4149,-0.4108,-0.4172,-0.4273,-0.4283,-0.4148,-0.4147,-0.4147,0,-0.4336,-0.4332,-0.4347,-0.4342,-0.4311,-0.432,-0.4308,-0.429,-0.4289,-0.4282,-0.4281,-0.4276,-0.4273,-0.4271,-0.4241,-0.4216,-0.4262,-0.4221,-0.4252,-0.4253,-0.4265,-0.4265,-0.4368,-0.4263,-0.4263,-0.4263,-0.4262,0,-0.441,-0.4429,-0.4382,-0.4392,-0.4412,-0.4374,-0.4396,-0.4379,-0.4364,-0.4371,-0.4332,-0.434,-0.43,-0.4304,-0.4281,-0.4299,-0.4298,-0.4288,-0.4282,-0.4292,-0.4294,-0.4293,-0.4288,-0.4265,-0.4264,-0.4264,-0.4264,0,-0.4501,-0.447,-0.4485,-0.4455,-0.4448,-0.4465,-0.444,-0.4448,-0.4427,-0.4437,-0.4437,-0.4404,-0.4407,-0.4377,-0.4374,-0.4358,-0.4388,-0.4374,-0.4393,-0.4389,-0.4422,-0.442,-0.453,-0.4544,-0.4429,-0.443,-0.4431,0,-0.4551,-0.4564,-0.4536,-0.4538,-0.4528,-0.453,-0.4529,-0.4492,-0.4492,-0.4476,-0.4487,-0.4487,-0.4484,-0.4491,-0.4468,-0.4465,-0.4452,-0.449,-0.4451,-0.4462,-0.4454,-0.4454,-0.4456,-0.4499,-0.45,-0.4502,-0.4503,0,-0.4644,-0.4628,-0.4626,-0.462,-0.4619,-0.4612,-0.4603,-0.4607,-0.4567,-0.457,-0.4571,-0.457,-0.4567,-0.4567,-0.4561,-0.4549,-0.4521,-0.4515,-0.4522,-0.4534,-0.4545,-0.4541,-0.4418,-0.4513,-0.4512,-0.4511,-0.4511,-0.451,-0.4717,-0.4727,-0.4709,-0.4709,-0.4698,-0.4691,-0.4698,-0.4678,-0.4679,-0.4673,-0.4651,-0.4658,-0.4643,-0.4631,-0.4623,-0.4628,-0.4609,-0.4619,-0.4622,-0.4626,-0.4633,-0.4543,-0.4627,-0.4626,-0.4626,-0.4626,-0.4625,0,-0.4809,-0.4795,-0.4795,-0.4784,-0.4784,-0.4756,-0.4744,-0.4747,-0.4753,-0.4741,-0.4739,-0.4743,-0.4743,-0.472,-0.4718,-0.4727,-0.4714,-0.4728,-0.4727,-0.4726,-0.4648,-0.4643,-0.4739,-0.4739,-0.4739,-0.4739,-0.4738,-0.4738,-0.4857,-0.4873,-0.4856,-0.4867,-0.4853,-0.4859,-0.4855,-0.4849,-0.4839,-0.4844,-0.4844,-0.4829,-0.4813,-0.481,-0.481,-0.4803,-0.4805,-0.4824,-0.4813,-0.4742,-0.4731,-0.472,-0.4715,-0.4824,-0.4824,-0.489,-0.4891,-0.4891]},{"header":{"parameterUnit":"m.s-1","parameterCategory":1,"la1":30.2991,"la2":30.254,"lo1":-89.0895,"lo2":-89.0444,"dy":0.0017,"dx":0.0017,"nx":28,"ny":28,"refTime":"2024-03-17T09:00:00:Z","depth":0,"parameterNumber":3,"parameterNumberName":"V-component_of_WINDS"},"data":[0,0,0,0,0,0,0,0,0,0,0,0,0,0,0,0,0,0,0,0,0,0,0,0,0,0,0,0,0,0,0,0,0,0,0,0,0,0,0,0,0,0,0,0,0,0,0,0,0,0,0,0,0,0,0,0,0,0,0.3744,0.3743,0,0.3665,0.3664,0.3663,0.3596,0.3595,0.3594,0.3593,0.3511,0.3509,0.3508,0,0,0,0,0,0,0,0,0,0,0,0,0,0.3835,0.3834,0.3744,0.3743,0.3742,0.3665,0.3664,0.3663,0.3596,0.3595,0.3594,0.3593,0.3511,0.351,0.3508,0,0,0,0,0,0,0,0,0,0,0,0,0,0.378,0.3833,0.3744,0.3699,0.3694,0.3665,0.3664,0.3663,0.3596,0.3595,0.3594,0.3593,0.3512,0.351,0.3508,0.3516,0,0,0.3501,0.35,0,0,0,0,0,0,0,0,0.3783,0.3776,0.3707,0.3702,0.3697,0.3639,0.3666,0.3613,0.3596,0.3633,0.3593,0.3592,0.3554,0.3549,0.3536,0.3512,0.3509,0.3501,0.3499,0.3498,0.3498,0,0,0,0,0,0,0,0.3787,0.3779,0.3712,0.3706,0.37,0.3683,0.3673,0.3656,0.3601,0.363,0.3625,0.3616,0.3551,0.3538,0.3534,0.3508,0.3501,0.3499,0.3497,0.3496,0.3486,0.3487,0,0,0,0,0,0,0.3798,0.3783,0.3715,0.371,0.3738,0.3682,0.3672,0.3659,0.3601,0.3591,0.3617,0.3614,0.3543,0.3536,0.3531,0.3535,0.3498,0.3496,0.3495,0.3485,0.3487,0.3488,0,0,0,0,0,0,0.38,0.3792,0.3718,0.3745,0.3734,0.3681,0.3667,0.3658,0.3644,0.3592,0.3581,0.3614,0.3542,0.3534,0.352,0.3532,0.3495,0.3493,0.3484,0.3486,0.3487,0.3547,0,0,0,0,0,0,0.3803,0.3794,0.3796,0.3746,0.3733,0.3709,0.3668,0.3657,0.3641,0.3635,0.3586,0.3577,0.354,0.3524,0.3518,0.3528,0.3491,0.3483,0.3485,0.3487,0.3543,0.355,0.3556,0,0,0,0,0,0.3806,0.3816,0.3797,0.3789,0.3736,0.371,0.3703,0.3661,0.3642,0.3644,0.3611,0.3578,0.3532,0.3523,0.3516,0.3525,0.3482,0.3484,0.3486,0.3541,0.3549,0.3556,0,0,0,0,0,0,0.3868,0.3808,0.3786,0.378,0.3751,0.3699,0.37,0.3672,0.3646,0.3642,0.3591,0.358,0.3572,0.3548,0.3539,0.3531,0.3503,0.3504,0.3546,0.3554,0.356,0.3565,0.3489,0,0,0,0,0,0.3882,0.3866,0.3815,0.3814,0.3801,0.3753,0.3741,0.3711,0.3679,0.3666,0.3631,0.36,0.3578,0.3565,0.3543,0.3541,0.3528,0.3544,0.355,0.3556,0.3556,0.3552,0.3558,0.3496,0.3496,0.3496,0,0,0.3908,0.3873,0.3866,0.3826,0.3799,0.3784,0.3743,0.3729,0.3717,0.3663,0.3648,0.3622,0.3584,0.3576,0.3571,0.3556,0.3571,0.3559,0.3563,0.3561,0.3555,0.3561,0.3567,0.3497,0.3497,0.3497,0,0,0.3947,0.3921,0.3916,0.3892,0.3853,0.3822,0.3821,0.3774,0.3754,0.3739,0.3698,0.3684,0.3648,0.3622,0.3605,0.3637,0.3606,0.3632,0.3663,0.366,0.3665,0.3669,0.3679,0.3683,0.3633,0.3633,0.3633,0,0.3984,0.396,0.3918,0.3906,0.3889,0.3841,0.3836,0.3814,0.377,0.3759,0.3743,0.3698,0.3669,0.3654,0.3662,0.365,0.3647,0.3635,0.3668,0.3671,0.3674,0.3683,0.3687,0.3636,0.3636,0.3636,0.3635,0,0.4007,0.3991,0.3993,0.3952,0.3935,0.3927,0.3883,0.3872,0.3845,0.3815,0.38,0.3764,0.3733,0.3728,0.3701,0.371,0.3701,0.3678,0.3648,0.3684,0.3691,0.3695,0.3641,0.364,0.3639,0.3638,0,0,0.408,0.4018,0.4019,0.3999,0.3954,0.3941,0.3931,0.3902,0.3892,0.3864,0.3854,0.3826,0.3803,0.3784,0.3754,0.3752,0.3778,0.3728,0.3726,0.3736,0.3783,0.3799,0.3804,0.3758,0.3759,0.3759,0.3785,0,0.411,0.4089,0.4052,0.4043,0.4027,0.3983,0.3974,0.3946,0.3919,0.3901,0.3871,0.3851,0.3825,0.3812,0.3808,0.3775,0.3786,0.3773,0.3746,0.3746,0.3754,0.3808,0.3825,0.3851,0.3788,0.3789,0.3789,0,0.4142,0.4117,0.4107,0.4063,0.4055,0.4048,0.4018,0.4003,0.397,0.395,0.3929,0.3897,0.3884,0.3859,0.3839,0.3832,0.3819,0.3801,0.3801,0.3795,0.3768,0.38,0.3858,0.3862,0.3793,0.3793,0.3793,0,0.4194,0.4158,0.4147,0.4133,0.4082,0.4078,0.4057,0.4023,0.4007,0.3982,0.3971,0.3944,0.3929,0.3909,0.387,0.3856,0.3854,0.3827,0.3836,0.3837,0.3835,0.3835,0.3889,0.3832,0.3832,0.3832,0.3831,0,0.423,0.4225,0.417,0.4162,0.4156,0.4113,0.4108,0.4082,0.4053,0.4039,0.4001,0.3989,0.394,0.3923,0.3893,0.388,0.3874,0.3857,0.3849,0.3859,0.3861,0.3848,0.3844,0.3832,0.3832,0.3832,0.3832,0,0.4285,0.4248,0.4233,0.4187,0.4176,0.4172,0.4133,0.4124,0.4096,0.408,0.4074,0.4029,0.4007,0.3967,0.3934,0.3913,0.3906,0.3893,0.3917,0.3912,0.3923,0.3921,0.3968,0.3971,0.3914,0.3915,0.3916,0,0.4309,0.4304,0.4258,0.4247,0.4227,0.421,0.4195,0.4154,0.4139,0.4102,0.4098,0.4073,0.405,0.4017,0.3981,0.3955,0.394,0.3958,0.3935,0.3946,0.3937,0.3937,0.3935,0.3962,0.3963,0.3964,0.3964,0,0.4354,0.4337,0.4317,0.429,0.4274,0.4251,0.4226,0.4219,0.4172,0.4158,0.4135,0.4118,0.4085,0.406,0.4029,0.4006,0.3977,0.3972,0.3973,0.3982,0.3995,0.3986,0.3929,0.397,0.397,0.3969,0.3969,0.3969,0.4393,0.4386,0.4353,0.4332,0.431,0.4288,0.4277,0.4249,0.4229,0.4199,0.4176,0.4155,0.4122,0.4078,0.4058,0.404,0.4026,0.4028,0.4027,0.4028,0.4031,0.4,0.4035,0.4034,0.4034,0.4034,0.4034,0,0.4434,0.4412,0.4393,0.436,0.4343,0.432,0.4291,0.4279,0.4261,0.4234,0.4213,0.4187,0.4163,0.4126,0.4099,0.4092,0.4078,0.4086,0.4085,0.408,0.4046,0.4047,0.4098,0.4098,0.4098,0.4098,0.4098,0.4098,0.4454,0.4441,0.442,0.4396,0.4374,0.4353,0.4339,0.4318,0.4296,0.4269,0.425,0.4226,0.4195,0.4166,0.4143,0.4133,0.4124,0.4136,0.4121,0.4089,0.4083,0.4077,0.4078,0.4135,0.4135,0.4156,0.4157,0.4157]}]]